Location: Champignolles
(47.0543°N, 4.5663°E)
Time: 05:27:23
(UTC+00:00)

Meteor 1-4 Rocket - Pass Details

Date: 30 November 2020
Orbit: 449 x 500 km, 81.2° (Epoch: 18 January)

Event Time Altitude Azimuth Distance (km) Brightness Sun altitude
Rises 16:24:22 0° 145° (SE) 2,525 6.1 -5.2°
Reaches altitude 10° 16:27:21 10° 117° (ESE) 1,640 4.9 -5.7°
Maximum altitude 16:29:07 13° 88° (E) 1,446 4.4 -6.0°
Drops below altitude 10° 16:30:52 10° 58° (ENE) 1,633 4.6 -6.2°
Enters shadow 16:31:48 - 47° (NE) 1,858 4.9 -6.4°
